Hourly Data Report for November 12, 2019

All times are specified in Local Standard Time (LST). Add 1 hour to adjust for Daylight Saving Time where and when it is observed.

QUALICUM BEACH AIRPORT
BRITISH COLUMBIA
Current Station Operator: ECCC - MSC

49°20'14.000" N
124°23'38.000" W
58.20 m
1026562
71766
VOQ

Download Data

Hourly Data (November 2019)
Hourly Data Report for November 12, 2019
TIME Temp Definition
°C
Dew Point Definition
°C
Rel Hum Definition
%
Wind Dir Definition
10's deg

Wind Spd Definition
km/h
Visibility Definition
km
Stn Press Definition
kPa
Hmdx Definition


Wind Chill Definition


Weather Definition


00:00 7.2 6.8 97 13 1   101.36     LegendNANA
01:00 7.5 7.1 97 12 7   101.20     LegendNANA
02:00 7.4 6.9 97 12 4   101.17     LegendNANA
03:00 7.2 6.7 97 15 3   101.14     LegendNANA
04:00 7.1 6.6 97 13 1   101.07     LegendNANA
05:00 7.1 6.7 97 30 3   101.06     LegendNANA
06:00 7.2 6.8 98   0   101.04     LegendNANA
07:00 7.2 6.8 98 30 3   101.06     LegendNANA
08:00 7.1 6.8 98 20 1   101.07     LegendNANA
09:00 7.6 7.2 98   0   101.14     LegendNANA
10:00 8.1 7.7 98   0   101.19     LegendNANA
11:00 8.7 8.3 97 11 4   101.20     LegendNANA
12:00 9.1 8.3 95 12 8   101.18     LegendNANA
13:00 9.1 8.2 94 11 10   101.20     LegendNANA
14:00
15:00
16:00 9.1 8.4 95 12 7   101.27     LegendNANA
17:00 8.9 8.3 96 11 7   101.30     LegendNANA
18:00 8.9 8.3 96 9 5   101.35     LegendNANA
19:00 8.9 8.2 95 12 1   101.42     LegendNANA
20:00 8.9 8.3 96 28 2   101.41     LegendNANA
21:00 8.9 8.4 97 30 4   101.44     LegendNANA
22:00 8.8 8.4 97 28 6   101.49     LegendNANA
23:00 8.8 8.4 97 26 4   101.52     LegendNANA

Notes on Data Quality.

Legend

  • E = Estimated
  • M = Missing
  • NA = Not Available
Date modified: